Dewpoint
70 70 71 73 73 73 72 72 73 73 73 73 73 73 73 73 73 73 73 73 73 73 73 73 73 73 73 73 73 73 73 73 73 73 72 72 72 71 71 71 71 71 70 69 69 69 68 68 69 69 69 70 70 70 70 70 70 69 68 69 69 69 69 69 69 69 68 68 68 68 69 68 68 68 69 69 68 67 66 66 66 65 65 65 65
69 71 72 73 73 73 72 72 73 73 72 72 73 73 73 73 73 73 73 73 72 73 73 73 73 73 73 73 73 73 73 73 73 73 72 72 72 71 71 71 71 71 70 70 69 69 69 69 69 69 69 69 70 70 70 69 69 68 68 69 69 69 69 69 69 69 69 68 68 68 68 68 68 68 68 67 67 66 66 66 66 65 65 65 65
70 71 72 72 73 72 72 72 72 72 72 72 73 73 73 73 73 73 73 72 73 73 73 73 73 73 73 73 73 73 73 72 72 72 72 72 72 71 71 71 70 70 69 69 69 69 68 68 68 68 68 69 69 70 69 69 69 68 68 68 68 69 69 69 69 69 69 69 68 68 68 68 67 67 67 68 67 66 65 66 66 66 64 66 65
70 71 72 72 72 73 72 72 72 72 72 72 73 73 73 73 73 73 73 73 73 73 73 73 73 73 73 73 73 72 72 72 72 72 72 72 71 71 71 70 70 70 69 69 69 69 68 68 68 68 68 68 68 68 68 68 68 68 68 68 69 69 68 68 69 68 68 68 67 67 68 65 66 67 67 67 66 66 66 65 65 65 65 65 65
71 71 71 71 71 73 72 72 72 72 72 72 73 73 73 73 73 73 73 73 73 73 73 73 72 73 73 73 73 73 73 72 72 72 72 71 71 71 70 70 70 70 70 69 69 69 70 69 68 67 67 67 67 67 67 67 68 68 68 68 68 68 68 68 68 67 68 67 67 67 64 64 65 66 66 65 65 67 66 65 64 64 64 65 65
70 70 70 71 71 72 73 72 71 72 72 72 73 73 73 73 73 72 73 73 72 72 72 72 72 72 73 73 73 72 72 72 72 72 71 71 71 71 71 71 70 70 70 70 69 69 69 69 69 68 68 68 67 67 67 67 67 67 67 67 67 68 68 68 67 68 68 68 66 65 64 64 64 64 65 65 65 65 65 65 64 65 64 64 63
70 70 71 71 71 72 72 72 71 72 71 72 72 73 73 73 72 72 71 71 72 73 72 72 72 72 73 73 72 72 72 72 72 72 71 71 71 71 71 71 71 70 70 70 69 69 70 70 69 69 68 67 67 66 66 67 67 67 67 67 67 67 67 67 68 67 67 69 65 63 63 64 65 64 66 65 65 66 65 65 66 65 64 64 65
70 70 71 71 71 72 72 72 71 71 71 71 72 72 72 72 72 71 71 72 72 72 72 72 73 73 73 73 73 73 72 72 72 72 71 71 71 71 70 70 70 70 69 70 70 70 70 69 69 69 68 68 67 67 67 67 67 67 67 67 67 67 68 68 68 68 68 68 66 63 63 64 66 66 67 67 67 67 67 66 65 65 64 64 63
70 70 70 71 71 72 72 72 71 71 71 71 72 72 72 72 71 71 71 72 72 72 72 72 72 73 73 72 72 72 72 72 72 72 72 71 71 71 71 70 70 71 70 70 70 69 69 68 68 68 68 68 68 68 68 67 67 67 67 68 67 68 69 69 70 69 69 68 64 62 64 66 67 67 68 69 69 68 68 67 67 66 65 64 63
69 70 70 70 71 72 72 72 72 71 71 71 71 71 71 71 71 71 72 72 72 72 72 72 73 73 72 72 72 72 72 72 72 72 71 71 71 71 71 71 71 70 70 69 69 69 69 69 69 69 68 68 68 68 68 68 68 68 68 69 69 69 69 70 70 68 65 66 62 63 65 68 66 67 68 69 68 68 67 67 68 66 66 65 63
69 70 70 70 71 72 72 72 72 71 71 71 71 71 71 71 71 72 72 72 72 72 72 73 73 73 73 72 72 72 72 72 72 71 71 71 71 71 71 70 70 69 69 69 69 69 69 69 69 70 69 69 67 67 69 68 69 69 69 69 70 70 70 70 69 66 63 63 63 65 68 68 65 65 67 67 67 66 66 65 65 65 64 64 64
68 69 69 70 71 72 72 71 71 71 71 71 71 71 71 72 72 72 72 72 72 73 72 72 72 72 72 72 72 72 72 71 71 71 71 71 71 71 70 70 69 69 70 70 69 69 69 70 70 70 69 69 69 69 69 68 69 69 70 70 70 70 70 70 67 66 65 65 66 67 67 67 65 66 67 67 67 66 65 65 64 64 63 63 62
68 68 69 70 71 72 71 71 71 70 70 70 71 71 72 72 72 72 72 73 73 72 72 73 72 73 72 72 72 72 71 71 71 71 71 71 70 70 70 70 70 70 70 68 68 69 70 70 69 70 70 70 70 69 69 69 69 69 69 70 70 70 70 69 66 65 65 66 67 66 66 65 65 67 66 66 66 65 64 64 64 64 63 62 63
68 68 69 70 70 71 71 71 71 70 70 71 71 72 72 72 72 72 73 73 72 72 73 73 72 72 72 72 72 71 71 71 71 70 70 69 69 69 70 70 69 69 68 68 68 70 70 70 70 69 70 70 70 70 70 70 70 70 70 70 70 70 70 68 68 65 65 64 66 65 65 66 64 67 66 66 65 65 64 63 63 63 63 62 62
68 69 69 69 69 69 70 71 71 71 71 72 72 72 72 73 73 73 73 73 72 73 73 72 72 72 72 71 71 71 71 71 70 70 70 69 69 68 68 67 68 68 68 68 69 69 70 70 70 70 69 70 70 70 70 70 70 70 70 70 70 70 70 68 68 66 63 64 65 66 64 64 68 67 66 66 65 65 64 63 63 63 62 62 61
69 69 69 69 69 69 69 69 70 71 72 72 72 73 73 73 73 73 73 73 73 73 72 72 72 72 72 72 71 71 71 70 70 70 70 69 69 69 68 68 68 68 68 69 69 69 69 69 69 69 70 70 69 70 70 70 71 70 70 71 71 71 70 71 67 66 64 64 65 65 64 65 68 66 66 65 65 64 64 64 63 62 62 62 61
69 69 68 68 68 68 68 68 69 71 72 72 73 73 73 73 73 73 73 73 73 72 72 72 72 72 72 71 71 71 70 70 69 69 69 69 69 68 68 68 68 68 68 68 68 69 69 69 69 69 69 69 70 70 70 71 70 71 71 71 71 71 71 71 67 65 64 64 64 64 64 65 66 66 66 65 64 64 64 64 64 63 62 62 61
69 68 68 68 68 68 68 68 69 70 70 72 73 73 73 73 73 73 73 73 72 72 72 72 72 72 71 71 71 70 70 69 69 68 68 68 68 68 68 68 68 68 68 67 67 68 68 68 69 70 69 70 69 70 70 71 70 71 71 71 71 71 71 69 65 65 63 66 63 65 65 67 68 67 66 65 64 64 64 65 64 64 63 62 61
67 68 68 68 68 68 68 70 70 70 70 70 72 73 73 73 73 73 73 72 72 72 72 72 72 72 71 71 70 70 70 70 69 69 68 68 67 67 67 68 68 68 67 67 67 67 67 68 68 69 70 70 69 70 70 70 71 71 71 71 71 71 70 67 65 65 63 64 63 64 64 68 68 67 66 65 64 65 65 65 64 63 63 62 60
67 67 67 68 68 68 69 70 70 70 70 70 71 72 72 73 72 73 73 72 72 72 72 71 72 72 71 71 71 71 70 69 69 68 69 68 68 67 67 67 67 67 67 67 67 67 67 67 68 68 69 69 70 70 70 71 71 71 71 71 71 71 65 64 65 65 62 63 64 63 65 68 67 67 65 65 65 66 65 64 64 63 62 62 61
66 66 67 67 68 68 69 70 70 70 69 70 70 71 72 72 72 73 72 72 72 72 72 72 71 71 71 71 71 69 68 68 68 68 69 67 69 68 67 67 67 67 67 67 67 67 67 67 67 68 68 68 70 70 70 71 71 71 71 71 71 68 64 64 65 66 63 64 66 63 66 67 67 67 66 65 66 66 65 64 63 63 62 62 61
65 66 66 66 67 68 69 69 69 69 69 70 71 71 71 72 71 71 71 71 72 72 71 71 71 69 70 70 68 69 67 67 67 70 68 68 68 69 68 67 67 67 68 67 67 67 67 67 68 68 68 68 69 66 68 69 70 71 72 72 70 66 64 64 64 61 64 64 65 64 67 67 67 67 66 65 66 66 65 64 63 62 63 62 61
65 65 66 66 66 67 67 68 68 68 69 69 71 71 71 71 71 71 71 72 72 72 71 71 69 69 69 69 69 68 68 68 68 70 69 70 69 69 69 68 67 67 67 68 68 68 68 68 69 69 69 69 66 65 65 65 66 70 70 68 66 66 65 64 64 62 63 62 64 66 68 68 68 67 67 66 66 66 64 64 63 62 63 62 62
65 65 65 66 67 66 67 67 68 68 69 69 71 71 71 70 70 70 70 70 70 71 69 69 69 68 69 68 68 68 68 68 71 72 70 68 68 69 69 69 68 68 68 68 68 69 68 69 69 69 69 67 64 63 64 65 66 66 66 66 66 65 65 64 65 61 61 63 64 67 69 68 68 67 67 66 66 66 65 63 64 63 63 62 62
66 65 66 66 66 66 66 66 67 68 68 69 70 70 70 70 70 70 70 69 70 69 69 68 69 68 69 69 69 69 68 68 69 68 67 67 66 66 66 66 66 65 70 65 65 65 66 65 64 64 61 62 62 62 62 62 64 66 66 66 66 64 64 64 65 61 61 63 65 68 69 69 68 68 68 67 67 67 66 64 64 64 63 63 61
67 66 66 67 67 67 67 66 67 67 68 69 69 70 70 69 69 70 69 69 69 69 68 69 68 68 68 69 69 68 67 67 67 67 66 66 66 66 65 65 66 67 68 66 66 65 63 64 64 61 60 60 61 60 60 63 62 63 65 66 65 64 63 63 64 63 62 63 65 68 70 69 69 69 69 68 67 67 67 65 65 65 64 63 62
65 65 66 66 66 68 68 67 66 67 68 68 69 69 69 69 69 69 69 68 69 68 68 68 69 68 68 69 69 67 65 65 66 66 66 67 66 66 66 66 66 66 67 66 66 66 65 63 61 59 58 58 57 58 58 58 59 60 63 65 65 64 64 64 64 62 62 63 65 69 70 69 69 69 69 68 68 67 67 66 65 65 65 64 63
65 65 66 66 67 67 68 68 66 66 67 67 68 68 68 69 69 71 70 70 70 69 68 69 68 68 69 68 69 66 66 66 66 66 66 66 67 67 67 67 67 66 67 68 67 66 66 64 62 60 60 58 57 58 60 60 57 61 64 65 65 65 64 64 64 61 62 63 64 69 70 70 69 69 69 69 69 68 67 67 66 65 65 65 64
65 65 65 66 67 68 68 67 66 66 66 66 67 66 66 68 69 69 69 71 69 68 68 68 67 67 67 69 69 67 67 67 67 66 66 66 66 66 67 67 67 66 67 67 67 65 65 64 64 64 64 64 64 64 65 65 62 61 60 60 60 61 62 62 62 62 63 63 63 66 70 70 70 69 70 70 69 69 68 68 67 66 66 66 65
65 65 65 66 67 68 67 67 66 65 65 65 65 64 65 67 68 68 67 70 66 66 66 66 65 67 67 68 69 68 67 67 67 67 66 66 66 66 67 66 66 67 67 67 67 67 66 66 66 66 66 65 66 67 66 65 64 63 62 62 62 61 61 61 62 62 62 63 63 65 68 70 69 69 69 70 70 69 68 68 68 67 67 67 65
65 65 66 66 67 67 66 66 65 65 64 64 64 64 66 66 67 66 67 66 66 67 67 67 67 68 68 68 69 70 68 67 67 66 66 66 65 66 66 66 66 66 67 67 66 66 66 66 66 66 65 65 66 67 66 65 65 64 64 63 63 62 63 64 64 64 62 63 65 65 66 69 70 69 69 69 70 70 69 69 68 68 67 68 67
65 65 66 66 66 66 66 66 65 64 65 65 66 66 66 66 66 67 67 67 67 67 67 68 68 67 68 68 68 69 68 67 66 67 66 66 66 65 65 66 66 66 66 66 66 67 66 66 66 67 66 66 65 65 66 65 65 65 64 64 64 63 64 65 64 64 64 63 63 64 64 66 70 69 69 69 69 69 70 69 68 68 67 67 67
65 65 66 66 65 65 65 66 66 66 65 65 66 67 67 67 67 67 67 67 67 67 67 68 68 68 67 68 68 67 67 67 67 66 67 65 65 65 65 65 66 67 67 68 67 65 65 65 65 65 65 66 65 65 65 65 64 64 65 65 65 64 65 66 64 64 64 63 63 63 63 65 66 68 68 69 69 69 69 69 69 68 67 68 68
65 65 65 64 65 65 66 66 66 65 66 66 66 67 67 68 67 67 67 67 67 67 67 67 68 68 68 67 67 67 66 67 66 67 66 65 64 65 65 66 67 67 67 66 66 66 66 65 65 65 67 65 65 65 65 64 64 64 64 64 65 65 64 65 64 64 64 63 63 62 63 64 65 66 66 69 69 68 68 68 69 69 69 67 67
65 65 64 64 65 66 66 66 66 66 66 66 66 67 67 67 67 66 67 67 67 67 67 67 67 67 67 67 67 68 67 67 67 66 65 66 65 65 65 66 67 66 66 67 67 66 66 66 65 65 65 65 64 65 64 64 64 64 64 64 65 65 65 65 65 64 64 64 63 64 64 64 65 64 65 65 68 69 68 68 68 69 68 68 68
64 64 64 65 66 66 66 65 65 65 65 66 66 66 66 66 67 67 67 67 67 66 66 66 66 66 66 66 66 68 67 66 66 66 65 66 66 65 65 66 67 68 67 66 66 66 65 65 65 65 64 64 65 64 64 64 64 64 64 64 64 64 64 64 65 65 65 64 64 64 64 64 64 64 66 65 65 65 67 67 68 68 68 69 69
64 64 65 66 65 65 66 65 65 65 65 65 66 66 66 66 66 66 66 66 66 66 66 66 66 66 66 66 66 68 66 65 65 65 65 65 65 65 65 65 67 67 65 65 65 65 65 65 65 65 64 63 64 64 64 63 63 64 64 63 63 64 64 64 64 65 66 65 65 65 64 64 64 68 66 65 64 65 66 67 68 67 67 68 68
64 65 65 65 65 65 65 65 65 65 66 66 66 66 66 66 66 66 67 66 66 66 66 66 66 66 66 66 66 67 66 65 65 65 65 65 65 65 66 66 67 66 65 64 64 64 65 64 64 64 65 64 63 63 63 63 63 63 63 63 63 63 63 63 64 65 65 65 65 65 65 65 64 64 65 65 64 64 64 65 66 67 67 67 67
64 64 64 64 65 65 65 65 65 66 66 66 66 65 65 65 65 66 66 66 65 65 65 65 65 65 66 66 66 66 67 65 66 66 65 64 64 65 65 66 66 65 64 64 64 64 64 64 63 63 64 63 63 63 63 63 63 63 62 62 62 62 63 62 63 63 64 65 65 66 65 65 65 64 64 64 64 64 64 64 64 64 64 66 67
64 64 64 64 64 65 66 66 66 65 65 65 65 65 64 64 65 65 65 65 65 65 65 65 65 66 66 66 65 65 65 65 65 66 65 65 64 65 66 66 65 64 64 64 64 64 63 63 63 62 62 63 63 62 61 62 62 61 61 61 62 61 62 62 62 62 64 64 64 64 64 65 64 64 64 64 64 64 64 64 65 64 64 65 66
63 63 63 63 64 65 65 65 65 65 65 65 64 64 64 64 64 64 64 65 65 65 65 65 66 66 66 66 66 65 64 65 66 66 65 66 65 65 64 64 64 63 62 62 63 63 62 62 62 61 62 61 61 61 61 61 60 59 60 60 60 60 61 62 61 61 61 63 63 64 64 64 64 64 65 64 64 64 64 64 64 64 64 64 64
63 63 64 64 64 65 65 65 65 64 64 64 64 64 64 64 63 63 64 64 64 64 63 64 64 65 65 65 64 64 65 65 65 64 63 63 63 63 62 62 62 61 61 61 61 63 61 61 61 60 61 60 60 60 60 60 58 57 57 58 58 59 59 60 59 59 61 61 61 62 64 64 63 64 65 65 64 64 64 64 64 64 64 64 64
64 64 65 65 65 65 66 65 65 64 64 64 64 64 63 64 64 63 63 64 65 65 64 65 65 64 64 65 65 64 64 63 62 62 61 60 60 60 60 60 60 60 58 59 59 59 59 59 59 59 59 59 60 60 59 60 57 58 57 55 53 56 56 57 58 57 60 59 61 60 62 61 59 60 63 64 64 64 64 64 64 64 64 64 64
64 64 65 65 65 66 66 65 64 64 64 65 64 64 64 64 65 64 64 63 63 65 65 64 64 64 63 62 61 61 60 60 60 60 59 59 59 58 58 58 58 59 58 57 57 58 58 59 58 58 58 57 57 57 59 60 59 58 55 55 53 54 53 52 55 56 58 58 59 59 60 57 56 58 61 60 61 62 62 63 63 64 64 64 64
64 64 65 65 65 65 65 65 64 64 64 65 65 65 65 64 64 63 64 64 64 63 63 63 63 63 60 59 59 58 58 58 58 58 59 58 58 58 58 58 58 58 57 56 56 57 58 58 58 57 57 56 56 56 57 59 57 59 58 56 54 54 53 54 55 54 56 56 58 58 59 54 53 57 57 56 57 57 57 58 59 61 62 63 64
63 64 64 65 65 65 65 65 64 64 64 64 65 65 64 63 62 61 61 61 61 61 61 61 61 59 58 58 58 58 57 56 56 56 57 57 56 56 56 56 57 57 57 56 55 56 57 57 57 56 56 56 55 55 54 56 57 56 56 59 59 55 54 55 53 51 53 56 55 55 55 53 53 56 53 53 53 53 55 55 57 59 60 62 63
63 64 64 65 64 64 65 65 64 64 64 64 65 64 63 62 61 61 61 61 61 61 62 62 60 58 57 56 56 56 56 55 55 55 56 56 55 55 55 56 56 56 57 54 54 55 56 57 57 55 55 56 55 53 53 53 53 54 55 55 55 55 56 55 52 53 50 52 53 53 53 52 52 53 52 51 50 50 51 53 54 58 59 57 58
63 64 64 64 64 64 64 64 64 64 64 64 64 64 62 62 61 61 61 61 62 62 62 61 59 57 56 55 55 55 55 55 54 54 55 56 55 54 54 55 55 56 55 53 54 55 54 54 55 54 54 55 54 53 51 52 51 51 54 52 53 53 53 54 53 52 52 50 50 51 51 51 51 52 52 50 49 49 50 50 51 54 55 54 55
64 63 63 63 64 64 64 64 64 64 63 63 63 63 63 62 62 62 62 62 63 62 61 60 57 56 55 55 54 54 54 54 54 54 54 55 56 54 53 53 54 55 55 53 53 54 53 52 52 52 52 53 54 53 51 51 51 51 51 50 50 51 51 52 50 50 50 49 48 48 48 49 48 50 50 50 48 49 48 49 50 50 50 51 51
63 63 63 63 63 63 63 64 63 63 63 63 63 63 63 62 62 62 62 62 61 61 60 58 56 55 54 54 54 53 53 53 53 53 53 53 53 53 53 52 53 54 55 52 52 52 52 52 51 51 52 52 52 52 51 50 50 50 50 49 48 48 48 48 48 48 48 48 47 47 47 47 46 47 49 48 47 48 46 48 47 47 49 47 48
63 63 63 63 63 63 62 62 62 63 63 63 63 62 62 62 61 61 61 60 60 59 58 56 55 54 53 53 52 52 52 53 53 53 53 52 52 53 52 52 52 54 53 52 51 51 51 51 51 50 51 51 51 49 50 50 49 48 49 49 48 47 47 46 46 46 46 46 46 46 46 46 45 45 45 46 46 45 44 45 45 44 45 44 45